1513087200.78,63527,6.25,72644.8,-3.13,-7.27,-7.61,0,*56
1513087202.03,63528,6.25,72660.0,-3.11,-6.93,-7.01,0,*53
1513087203.29,63529,6.25,72660.3,-3.13,-6.23,-6.23,0,*5A
1513087204.56,63530,6.25,72656.8,-3.13,-5.89,-6.23,0,*51
1513087205.81,63531,6.25,72662.8,-3.13,-5.89,-6.01,0,*50
1513087207.03,63532,6.25,72666.3,-3.13,-6.09,-5.97,0,*54
1513087208.27,63533,6.25,72670.3,-3.13,-6.63,-6.39,0,*5E
1513087209.49,63534,6.25,72670.5,-3.13,-7.19,-6.77,0,*5F
1513087210.76,63535,6.25,72662.0,-3.17,-7.35,-7.05,0,*50
1513087211.98,63536,6.25,72688.8,-3.17,-9.27,-8.41,0,*51
1513087213.2,63537,6.25,72678.8,-3.17,-9.93,-8.45,0,*5B
1513087214.44,63538,6.25,72678.8,-3.17,-9.67,-8.03,0,*5D
1513087215.71,63539,6.25,72664.3,-3.21,-9.53,-7.77,0,*52
1513087216.93,63540,6.25,72664.8,-3.19,-10.09,-7.77,0,*60
1513087218.12,63541,6.25,72698.3,-3.19,-9.97,-7.49,0,*53
1513087219.37,63542,6.25,72696.3,-3.19,-9.41,-6.97,0,*59
1513087220.6,63543,6.25,72692.0,-3.19,-9.37,-6.81,0,*5E
1513087221.81,63544,6.25,72690.5,-3.19,-8.85,-6.43,0,*5F
1513087223.01,63545,6.19,72686.8,-3.19,-8.45,-6.31,0,*57
1513087224.24,63546,6.25,72674.5,-3.19,-8.11,-6.13,0,*55
1513087225.52,63547,6.25,72674.5,-3.17,-7.61,-5.89,0,*52
1513087226.77,63548,6.25,72678.0,-3.17,-7.19,-5.61,0,*54
1513087227.99,63549,6.25,72674.5,-3.19,-6.85,-5.65,0,*5B
1513087229.22,63550,6.25,72674.0,-3.19,-6.59,-5.61,0,*56
1513087230.47,63551,6.25,72668.3,-3.19,-6.27,-5.61,0,*5E
1513087231.7,63552,6.25,72670.3,-3.19,-5.65,-5.47,0,*5C
1513087232.95,63553,6.19,72664.3,-3.19,-5.69,-5.89,0,*53
1513087234.17,63554,6.25,72660.0,-3.19,-6.27,-6.31,0,*5D
1513087235.4,63555,6.25,72660.3,-3.19,-6.73,-7.31,0,*5C
1513087236.65,63556,6.19,72648.5,-3.21,-7.11,-7.95,0,*5F
1513087237.89,63557,6.25,72652.5,-3.19,-7.31,-8.11,0,*54
1513087239.14,63558,6.25,72644.0,-3.19,-7.91,-9.49,0,*5D
1513087240.38,63559,6.25,72632.0,-3.21,-7.77,-9.19,0,*5A
1513087241.63,63560,6.25,72638.3,-3.23,-8.03,-9.45,0,*57
1513087242.84,63561,6.25,72630.5,-3.23,-8.07,-9.31,0,*51
1513087244.05,63562,6.25,72638.3,-3.23,-8.97,-10.15,0,*65
1513087245.26,63563,6.25,72658.3,-3.23,-8.85,-10.01,0,*62
1513087246.49,63564,6.25,72670.0,-3.25,-8.89,-9.97,0,*58
1513087247.75,63565,6.25,72688.8,-3.25,-8.89,-9.83,0,*5C
1513087249.0,63566,6.25,72700.0,-3.25,-8.63,-9.37,0,*54
1513087250.22,63567,6.25,72694.8,-3.25,-9.23,-9.97,0,*5A
1513087251.45,63568,6.25,72696.3,-3.25,-9.97,-10.57,0,*6E
1513087252.73,63569,6.25,72692.8,-3.25,-11.37,-11.93,0,*55
1513087253.98,63570,6.25,72704.0,-3.27,-11.73,-11.97,0,*5B
1513087255.19,63571,6.25,72690.0,-3.27,-9.75,-10.45,0,*6B
1513087256.42,63572,6.25,72670.5,-3.27,-12.65,-13.23,0,*50
1513087257.68,63573,6.25,72694.3,-3.27,-12.15,-12.71,0,*50
1513087258.88,63574,6.25,72704.5,-3.27,-12.03,-12.39,0,*5C
1513087260.14,63575,6.25,72702.3,-3.27,-12.71,-12.83,0,*59
1513087261.4,63576,6.25,72684.0,-3.27,-12.71,-12.71,0,*57
1513087262.61,63577,6.25,72682.0,-3.27,-13.11,-12.39,0,*5D
1513087263.89,63578,6.25,72690.3,-3.29,-12.15,-11.85,0,*5D
1513087265.13,63579,6.25,72692.0,-3.27,-12.29,-11.89,0,*51
1513087266.33,63580,6.25,72700.8,-3.27,-12.43,-11.45,0,*5B
1513087267.59,63581,6.25,72698.3,-3.27,-12.15,-10.71,0,*5F
1513087268.82,63582,6.25,72700.8,-3.29,-11.01,-9.89,0,*6B
1513087270.08,63583,6.25,72694.8,-3.29,-11.29,-9.89,0,*60
1513087271.27,63584,6.25,72700.3,-3.27,-10.57,-9.23,0,*61
1513087272.47,63585,6.19,72672.8,-3.27,-10.01,-8.45,0,*62
1513087273.71,63586,6.25,72672.8,-3.29,-9.93,-7.91,0,*5A
1513087274.94,63587,6.25,72674.8,-3.27,-9.05,-7.31,0,*50
1513087276.19,63588,6.25,72676.8,-3.29,-8.93,-6.97,0,*52
1513087277.41,63589,6.19,72670.0,-3.27,-8.11,-6.55,0,*59
1513087278.63,63590,6.25,72676.8,-3.29,-6.73,-6.05,0,*50
1513087279.88,63591,6.25,72672.3,-3.29,-6.31,-5.65,0,*52
1513087281.16,63592,6.25,72678.3,-3.29,-5.81,-5.23,0,*5B
1513087282.38,63593,6.25,72684.0,-3.27,-5.47,-5.11,0,*5F
1513087283.61,63594,6.25,72688.8,-3.27,-5.47,-5.27,0,*5D
1513087284.83,63595,6.25,72694.5,-3.29,-5.35,-5.39,0,*58
1513087286.08,63596,6.25,72700.8,-3.29,-5.27,-5.35,0,*54
1513087287.33,63597,6.25,72712.0,-3.29,-5.23,-5.39,0,*5D
1513087288.57,63598,6.25,72718.8,-3.29,-5.11,-5.35,0,*5F
1513087289.82,63599,6.25,72704.5,-3.27,-5.03,-5.27,0,*50
1513087291.09,63600,6.25,72694.3,-3.29,-4.85,-5.11,0,*57
1513087292.36,63601,6.25,72684.3,-3.29,-4.73,-4.85,0,*53
1513087293.63,63602,6.25,72660.8,-3.29,-4.69,-4.85,0,*5B
1513087294.87,63603,6.19,72628.8,-3.29,-4.57,-4.93,0,*50
1513087296.12,63604,6.25,72658.8,-3.29,-4.49,-4.85,0,*5F
1513087297.36,63605,6.25,72648.8,-3.27,-4.69,-5.15,0,*5A
1513087298.6,63606,6.25,72620.0,-3.27,-4.69,-5.15,0,*59
1513087299.84,63607,6.25,72632.0,-3.27,-4.69,-5.11,0,*5C
1513087301.11,63608,6.25,72642.0,-3.25,-4.77,-5.07,0,*59
1513087302.36,63609,6.25,72666.8,-3.27,-4.81,-5.15,0,*50
1513087303.6,63610,6.25,72662.3,-3.27,-4.81,-5.11,0,*5C
1513087304.84,63611,6.25,72634.3,-3.27,-4.81,-5.15,0,*59
1513087306.09,63612,6.19,72644.0,-3.27,-4.81,-5.15,0,*5A
1513087307.33,63613,6.25,72636.8,-3.27,-4.85,-5.03,0,*58
1513087308.6,63614,6.19,72606.3,-3.25,-4.81,-4.89,0,*5A
1513087309.86,63615,6.25,72594.8,-3.25,-4.81,-4.77,0,*5A
1513087311.08,63616,6.25,72598.8,-3.23,-4.73,-4.61,0,*55
1513087312.33,63617,6.25,72600.8,-3.25,-4.69,-4.57,0,*5C
1513087313.52,63618,6.25,72538.0,-3.23,-4.65,-4.49,0,*56
1513087314.71,63619,6.25,72532.0,-3.23,-4.53,-4.41,0,*5A
1513087315.9,63620,6.25,72544.3,-3.23,-4.53,-4.41,0,*50
1513087317.1,63621,6.25,72568.0,-3.23,-4.53,-4.37,0,*50
1513087318.31,63622,6.25,72594.3,-3.23,-4.73,-4.65,0,*56
1513087319.54,63623,6.25,72612.0,-3.21,-4.65,-4.53,0,*57
1513087320.73,63624,6.25,72598.0,-3.23,-4.53,-4.41,0,*54
1513087321.93,63625,6.19,72570.5,-3.23,-4.41,-4.29,0,*58
1513087323.15,63626,6.25,72590.5,-3.21,-4.37,-4.29,0,*58
1513087324.35,63627,6.25,72610.5,-3.19,-4.25,-4.33,0,*5A
1513087325.54,63628,6.25,72608.8,-3.23,-4.37,-4.29,0,*54
1513087326.74,63629,6.25,72578.0,-3.19,-4.37,-4.37,0,*53
1513087327.96,63630,6.25,72612.3,-3.21,-4.37,-4.37,0,*50
1513087329.16,63631,6.25,72602.5,-3.23,-4.29,-4.29,0,*53
1513087330.39,63632,6.25,72560.5,-3.21,-4.29,-4.25,0,*5E
1513087331.61,63633,6.19,72602.5,-3.21,-4.37,-4.29,0,*5C
1513087332.81,63634,6.25,72594.8,-3.19,-4.33,-4.33,0,*5F
1513087334.03,63635,6.25,72612.8,-3.21,-4.41,-4.49,0,*5D
1513087335.25,63636,6.25,72624.8,-3.21,-4.49,-4.49,0,*56
1513087336.48,63637,6.25,72616.8,-3.21,-4.61,-4.53,0,*56
1513087337.7,63638,6.25,72604.8,-3.21,-4.41,-4.65,0,*5E
1513087338.95,63639,6.25,72622.0,-3.21,-4.53,-4.73,0,*5B
1513087340.19,63640,6.19,72636.3,-3.21,-4.53,-4.73,0,*55
1513087341.41,63641,6.25,72598.5,-3.19,-4.37,-4.73,0,*5D
1513087342.61,63642,6.25,72588.8,-3.19,-4.45,-4.61,0,*58
1513087343.83,63643,6.19,72616.3,-3.21,-4.37,-4.65,0,*53
1513087345.03,63644,6.25,72594.8,-3.19,-4.25,-4.49,0,*52
1513087346.23,63645,6.25,72628.3,-3.19,-4.33,-4.57,0,*5B
1513087347.44,63646,6.25,72612.0,-3.19,-4.33,-4.37,0,*5E
1513087348.66,63647,6.25,72626.5,-3.21,-4.05,-4.17,0,*53
1513087349.88,63648,6.19,72614.0,-3.21,-4.05,-4.05,0,*5F
1513087351.08,63649,6.19,72624.0,-3.19,-4.09,-4.21,0,*5F
1513087352.28,63650,6.25,72658.0,-3.19,-4.33,-4.45,0,*5C
1513087353.52,63651,6.19,72650.8,-3.19,-4.01,-4.21,0,*5E
1513087354.75,63652,6.25,72610.3,-3.19,-4.01,-4.13,0,*5C
1513087356.01,63653,6.25,72608.0,-3.17,-4.01,-4.21,0,*52
1513087357.23,63654,6.25,72588.5,-3.17,-4.09,-4.33,0,*5E
1513087358.43,63655,6.25,72614.0,-3.19,-4.21,-4.45,0,*5A
1513087359.65,63656,6.25,72612.0,-3.17,-4.45,-4.53,0,*52
1513087360.9,63657,6.19,72622.8,-3.13,-4.65,-4.69,0,*5C
1513087362.14,63658,6.25,72644.3,-3.17,-4.61,-4.69,0,*53
1513087363.41,63659,6.25,72632.8,-3.17,-4.69,-4.81,0,*5C
1513087364.66,63660,6.25,72642.0,-3.13,-4.65,-4.69,0,*58
1513087365.9,63661,6.25,72660.0,-3.17,-4.69,-4.61,0,*59
1513087367.12,63662,6.25,72660.5,-3.13,-4.65,-4.57,0,*57
1513087368.39,63663,6.25,72672.5,-3.17,-4.69,-4.69,0,*53
1513087369.61,63664,6.25,72678.0,-3.13,-4.65,-4.65,0,*50
1513087370.84,63665,6.25,72660.3,-3.13,-4.65,-4.65,0,*51
1513087372.06,63666,6.25,72664.3,-3.17,-4.57,-4.57,0,*56
1513087373.28,63667,6.25,72642.8,-3.17,-4.49,-4.61,0,*5D
1513087374.54,63668,6.25,72674.3,-3.17,-4.57,-4.69,0,*55
1513087375.78,63669,6.25,72678.0,-3.17,-4.61,-4.69,0,*51
1513087377.01,63670,6.25,72670.8,-3.13,-4.33,-4.57,0,*57
1513087378.23,63671,6.25,72670.8,-3.17,-4.37,-4.57,0,*56
1513087379.46,63672,6.25,72670.8,-3.13,-4.41,-4.53,0,*54
1513087380.67,63673,6.25,72656.3,-3.17,-4.45,-4.57,0,*51
1513087381.9,63674,6.25,72650.5,-3.13,-4.33,-4.57,0,*53
1513087383.14,63675,6.25,72688.0,-3.17,-4.37,-4.73,0,*54
1513087384.36,63676,6.25,72678.3,-3.17,-4.45,-4.99,0,*56
1513087385.61,63677,6.25,72676.5,-3.13,-4.41,-5.23,0,*57
1513087386.82,63678,6.25,72682.8,-3.13,-4.45,-5.51,0,*59
1513087388.04,63679,6.19,72682.5,-3.13,-4.53,-5.97,0,*55
1513087389.28,63680,6.25,72690.3,-3.17,-4.69,-6.43,0,*54
1513087390.53,63681,6.25,72680.0,-3.17,-4.81,-7.11,0,*55
1513087391.77,63682,6.25,72692.0,-3.17,-4.99,-7.61,0,*58
1513087393.02,63683,6.25,72690.8,-3.17,-5.39,-8.11,0,*5A
1513087394.26,63684,6.25,72692.8,-3.17,-5.77,-8.67,0,*56
1513087395.5,63685,6.25,72686.3,-3.17,-6.43,-9.49,0,*5E
1513087396.75,63686,6.25,72668.8,-3.17,-6.81,-9.41,0,*5B
1513087398.0,63687,6.25,72670.0,-3.17,-6.97,-9.23,0,*59
1513087399.23,63688,6.25,72674.3,-3.17,-8.17,-10.89,0,*68
1513087400.45,63689,6.25,72666.3,-3.13,-8.63,-10.85,0,*62
1513087401.73,63690,6.25,72648.3,-3.13,-9.61,-11.85,0,*68
1513087402.98,63691,6.19,72630.5,-3.17,-10.23,-12.53,0,*5B
1513087404.24,63692,6.25,72650.0,-3.17,-9.79,-11.67,0,*6B
1513087405.47,63693,6.25,72628.5,-3.17,-10.89,-13.11,0,*5E
1513087406.7,63694,6.25,72606.8,-3.17,-10.85,-12.97,0,*5A
1513087407.94,63695,6.19,72648.5,-3.19,-11.01,-12.83,0,*5D
1513087409.22,63696,6.25,72664.3,-3.21,-10.79,-13.01,0,*50
1513087410.48,63697,6.25,72666.8,-3.21,-10.67,-13.15,0,*5B
1513087411.71,63698,6.25,72654.0,-3.21,-11.19,-13.73,0,*5C
1513087412.96,63699,6.25,72654.3,-3.21,-11.73,-13.93,0,*5F
1513087414.22,63700,6.25,72640.8,-3.21,-11.93,-13.55,0,*5A
1513087415.5,63701,6.25,72648.3,-3.21,-11.73,-13.29,0,*5E
1513087416.74,63702,6.25,72660.5,-3.23,-11.73,-13.19,0,*5C
1513087418.0,63703,6.25,72668.3,-3.21,-11.45,-13.01,0,*53
1513087419.28,63704,6.25,72670.0,-3.21,-11.51,-13.01,0,*51
1513087420.51,63705,6.25,72670.8,-3.19,-11.37,-13.23,0,*5B
1513087421.77,63706,6.25,72658.0,-3.21,-12.15,-13.73,0,*55
1513087423.0,63707,6.25,72660.3,-3.19,-11.77,-13.15,0,*58
1513087424.25,63708,6.19,72656.3,-3.21,-12.57,-13.93,0,*53
1513087425.48,63709,6.25,72666.3,-3.23,-13.15,-14.01,0,*5B
1513087426.75,63710,6.19,72670.3,-3.25,-12.35,-13.19,0,*58
1513087427.95,63711,6.19,72662.5,-3.23,-12.03,-13.07,0,*55
1513087429.2,63712,6.25,72662.8,-3.23,-12.65,-13.33,0,*51
1513087430.44,63713,6.25,72660.0,-3.23,-12.47,-12.79,0,*5F
1513087431.67,63714,6.25,72652.3,-3.25,-13.19,-13.51,0,*5F
1513087432.87,63715,6.25,72648.0,-3.23,-13.73,-13.43,0,*57
1513087434.1,63716,6.25,72658.0,-3.25,-13.47,-13.07,0,*55
1513087435.34,63717,6.25,72666.5,-3.25,-13.51,-12.93,0,*5F
1513087436.57,63718,6.25,72678.0,-3.23,-13.43,-12.79,0,*51
1513087437.87,63719,6.19,72682.3,-3.25,-13.61,-12.71,0,*5E
1513087439.13,63720,6.25,72700.5,-3.25,-13.65,-12.35,0,*50
1513087440.39,63721,6.25,72702.0,-3.25,-13.23,-12.07,0,*52
1513087441.65,63722,6.19,72684.3,-3.25,-13.93,-12.53,0,*5B
1513087442.92,63723,6.25,72664.3,-3.25,-14.19,-12.35,0,*5F
1513087444.2,63724,6.25,72660.3,-3.25,-14.05,-11.85,0,*5D
1513087445.46,63725,6.19,72672.5,-3.25,-13.47,-11.29,0,*5B
1513087446.72,63726,6.25,72684.3,-3.25,-13.37,-10.97,0,*5B
1513087447.98,63727,6.25,72674.3,-3.27,-13.37,-10.63,0,*53
1513087449.19,63728,6.25,72694.3,-3.27,-12.89,-9.93,0,*6F
1513087450.39,63729,6.25,72688.3,-3.27,-12.25,-9.27,0,*67
1513087451.61,63730,6.25,72660.8,-3.27,-11.81,-8.93,0,*6C
1513087452.8,63731,6.25,72658.5,-3.27,-11.19,-8.59,0,*6A
1513087454.06,63732,6.25,72654.5,-3.27,-10.63,-8.11,0,*69
1513087455.28,63733,6.25,72674.3,-3.25,-10.27,-7.87,0,*6A
1513087456.55,63734,6.25,72676.5,-3.25,-9.61,-7.39,0,*52
1513087457.78,63735,6.25,72664.5,-3.25,-9.19,-6.77,0,*57
1513087458.98,63736,6.19,72668.0,-3.23,-8.71,-6.43,0,*5A
1513087460.2,63737,6.25,72662.5,-3.25,-8.21,-6.01,0,*5E
1513087461.44,63738,6.25,72666.5,-3.23,-7.91,-5.85,0,*5C
1513087462.66,63739,6.25,72668.0,-3.23,-7.53,-5.65,0,*5D
1513087463.86,63740,6.19,72668.5,-3.23,-6.85,-5.51,0,*5E
1513087465.06,63741,6.25,72672.8,-3.23,-6.59,-5.39,0,*50
1513087466.29,63742,6.25,72686.8,-3.23,-6.09,-5.07,0,*5B
1513087467.56,63743,6.25,72692.5,-3.21,-5.65,-4.77,0,*57
1513087468.81,63744,6.25,72696.3,-3.21,-5.39,-4.85,0,*54
1513087470.09,63745,6.25,72692.8,-3.21,-5.07,-4.77,0,*55
1513087471.34,63746,6.25,72682.0,-3.19,-5.11,-4.81,0,*53
1513087472.58,63747,6.19,72674.3,-3.23,-5.27,-4.89,0,*56
1513087473.83,63748,6.25,72676.3,-3.23,-5.07,-4.85,0,*57
1513087475.08,63749,6.25,72676.5,-3.23,-5.03,-4.77,0,*5F
1513087476.32,63750,6.19,72668.5,-3.21,-4.77,-4.65,0,*54
1513087477.59,63751,6.19,72664.8,-3.21,-4.77,-4.73,0,*52
1513087478.86,63752,6.25,72680.8,-3.21,-4.85,-4.73,0,*5C
1513087480.12,63753,6.25,72692.8,-3.21,-4.93,-4.77,0,*5E
1513087481.39,63754,6.25,72690.3,-3.21,-4.93,-4.77,0,*59
1513087482.63,63755,6.25,72678.5,-3.21,-4.85,-4.65,0,*5C
1513087483.86,63756,6.19,72680.3,-3.21,-4.65,-4.61,0,*55
1513087485.13,63757,6.25,72648.5,-3.21,-4.85,-4.73,0,*59
1513087486.41,63758,6.25,72640.5,-3.21,-5.15,-5.07,0,*5C
1513087487.69,63759,6.25,72690.0,-3.21,-5.27,-5.27,0,*5E
1513087488.97,63760,6.25,72686.5,-3.21,-5.03,-5.03,0,*54
1513087490.21,63761,6.25,72690.5,-3.23,-4.93,-4.93,0,*57
1513087491.47,63762,6.19,72686.8,-3.25,-4.93,-4.81,0,*51
1513087492.74,63763,6.25,72676.3,-3.25,-4.69,-4.77,0,*5C
1513087493.98,63764,6.25,72668.3,-3.23,-4.85,-4.85,0,*52
1513087495.21,63765,6.25,72670.5,-3.23,-4.77,-4.77,0,*53
1513087496.41,63766,6.19,72674.8,-3.23,-4.65,-4.65,0,*50
1513087497.68,63767,6.25,72682.8,-3.25,-4.77,-4.69,0,*58
1513087498.94,63768,6.25,72678.5,-3.25,-4.77,-4.77,0,*58
1513087500.16,63769,6.25,72682.0,-3.23,-4.73,-4.65,0,*58
1513087501.37,63770,6.25,72690.3,-3.23,-4.69,-4.65,0,*5B
1513087502.64,63771,6.25,72684.3,-3.25,-4.69,-4.69,0,*50
1513087503.9,63772,6.19,72682.8,-3.25,-4.69,-4.69,0,*53
1513087505.17,63773,6.25,72694.8,-3.25,-4.69,-4.69,0,*52
1513087506.44,63774,6.19,72696.3,-3.25,-4.69,-4.69,0,*55
1513087507.7,63775,6.19,72710.8,-3.25,-4.77,-4.77,0,*54
1513087508.97,63776,6.25,72714.0,-3.25,-4.81,-4.69,0,*51
1513087510.24,63777,6.19,72714.3,-3.25,-4.89,-4.81,0,*5E
1513087511.52,63778,6.19,72708.8,-3.25,-5.07,-5.11,0,*5E
1513087512.77,63779,6.25,72690.3,-3.25,-5.07,-4.99,0,*5E
1513087513.95,63780,6.25,72698.5,-3.27,-4.99,-4.99,0,*5C
1513087515.19,63781,6.19,72682.3,-3.27,-4.81,-4.81,0,*5D
1513087516.39,63782,6.19,72654.0,-3.27,-4.57,-4.49,0,*51
1513087517.57,63783,6.25,72650.0,-3.27,-4.45,-4.45,0,*5F
1513087518.77,63784,6.19,72612.3,-3.27,-4.57,-4.37,0,*5E
1513087519.96,63785,6.19,72604.8,-3.27,-4.49,-4.45,0,*55
1513087521.15,63786,6.25,72626.3,-3.27,-4.37,-4.45,0,*5F
1513087522.34,63787,6.25,72628.5,-3.27,-4.33,-4.45,0,*5A
1513087523.57,63788,6.25,72638.0,-3.29,-4.61,-4.61,0,*5A
1513087524.79,63789,6.25,72644.5,-3.25,-4.57,-4.57,0,*57
1513087526.06,63790,6.25,72644.5,-3.25,-5.11,-5.11,0,*5F
1513087527.25,63791,6.25,72634.5,-3.27,-4.99,-4.99,0,*5C
1513087528.44,63792,6.25,72628.8,-3.27,-4.99,-4.99,0,*5F
1513087529.68,63793,6.19,72640.5,-3.27,-4.85,-4.85,0,*5E
1513087530.92,63794,6.25,72644.3,-3.27,-4.81,-4.69,0,*5F
1513087532.16,63795,6.19,72638.0,-3.27,-4.69,-4.81,0,*5E
1513087533.4,63796,6.19,72642.5,-3.27,-4.81,-4.81,0,*5B
1513087534.67,63797,6.19,72640.8,-3.29,-4.81,-4.81,0,*54
1513087535.89,63798,6.25,72666.8,-3.27,-4.73,-4.61,0,*56
1513087537.13,63799,6.25,72658.8,-3.27,-4.73,-4.73,0,*54
1513087538.33,63800,6.25,72650.5,-3.27,-4.61,-4.61,0,*5B
1513087539.55,63801,6.25,72624.8,-3.25,-4.57,-4.45,0,*5B
1513087540.74,63802,6.25,72624.3,-3.27,-4.49,-4.49,0,*59
1513087541.96,63803,6.25,72622.3,-3.29,-4.49,-4.57,0,*59
1513087543.18,63804,6.19,72626.0,-3.27,-4.57,-4.69,0,*52
1513087544.4,63805,6.25,72626.5,-3.27,-4.57,-4.73,0,*58
1513087545.62,63806,6.25,72644.5,-3.27,-4.61,-4.81,0,*53
1513087546.84,63807,6.25,72642.0,-3.27,-4.61,-4.81,0,*52
1513087548.06,63808,6.25,72658.5,-3.27,-4.61,-4.73,0,*50
1513087549.28,63809,6.25,72618.0,-3.27,-4.49,-4.69,0,*50
1513087550.51,63810,6.25,72600.3,-3.27,-4.57,-4.69,0,*57
1513087551.73,63811,6.25,72622.3,-3.27,-4.57,-4.69,0,*56
1513087552.97,63812,6.25,72608.3,-3.27,-4.69,-4.81,0,*5E
1513087554.24,63813,6.25,72618.0,-3.25,-4.69,-4.89,0,*55
1513087555.48,63814,6.19,72624.5,-3.25,-4.65,-4.93,0,*55
1513087556.72,63815,6.25,72622.0,-3.25,-4.77,-4.99,0,*5D
1513087557.99,63816,6.25,72598.8,-3.25,-4.89,-5.19,0,*56
1513087559.27,63817,6.19,72606.3,-3.25,-4.89,-5.19,0,*57
1513087560.49,63818,6.19,72606.3,-3.27,-5.27,-5.39,0,*5D
1513087561.71,63819,6.19,72606.3,-3.27,-5.51,-5.65,0,*54
1513087562.96,63820,6.25,72608.8,-3.25,-5.43,-5.61,0,*5B
1513087564.21,63821,6.25,72614.5,-3.25,-5.61,-5.55,0,*5D
1513087565.45,63822,6.25,72618.0,-3.25,-5.61,-5.43,0,*59
1513087566.73,63823,6.25,72618.5,-3.25,-5.69,-5.31,0,*55
1513087568.01,63824,6.25,72626.5,-3.25,-5.61,-5.23,0,*59
1513087569.25,63825,6.25,72622.5,-3.25,-5.35,-4.93,0,*53
1513087570.53,63826,6.25,72646.3,-3.25,-5.31,-4.93,0,*54
1513087571.78,63827,6.19,72630.8,-3.23,-5.31,-4.89,0,*58
1513087573.05,63828,6.19,72622.8,-3.25,-5.07,-4.77,0,*55
1513087574.3,63829,6.19,72628.5,-3.25,-4.81,-4.65,0,*58
1513087575.57,63830,6.25,72618.3,-3.25,-4.81,-4.69,0,*5C
1513087576.81,63831,6.25,72616.3,-3.25,-4.81,-4.65,0,*51
1513087578.06,63832,6.19,72628.8,-3.25,-4.81,-4.65,0,*52
1513087579.33,63833,6.25,72632.0,-3.25,-4.89,-4.77,0,*58
1513087580.58,63834,6.25,72618.0,-3.27,-5.03,-4.81,0,*57
1513087581.82,63835,6.25,72616.5,-3.27,-5.15,-4.93,0,*52
1513087583.1,63836,6.25,72610.5,-3.25,-5.07,-4.93,0,*50
1513087584.37,63837,6.25,72608.3,-3.25,-5.19,-4.89,0,*55
1513087585.59,63838,6.25,72618.3,-3.27,-5.27,-4.99,0,*54
1513087586.87,63839,6.25,72628.3,-3.29,-5.15,-5.03,0,*58
1513087588.09,63840,6.19,72620.0,-3.27,-5.15,-4.99,0,*5A
1513087589.34,63841,6.19,72642.3,-3.29,-4.99,-4.85,0,*5D
1513087590.62,63842,6.19,72648.5,-3.29,-5.15,-5.03,0,*54
1513087591.89,63843,6.25,72660.0,-3.29,-5.11,-5.03,0,*51
1513087593.17,63844,6.25,72668.5,-3.29,-5.15,-5.03,0,*52
1513087594.42,63845,6.25,72668.5,-3.27,-5.15,-5.15,0,*5A
1513087595.68,63846,6.25,72660.5,-3.27,-5.23,-5.23,0,*59
1513087596.95,63847,6.25,72662.3,-3.29,-5.11,-5.15,0,*52
1513087598.19,63848,6.19,72656.0,-3.29,-5.11,-5.39,0,*53
1513087599.41,63849,6.25,72648.3,-3.27,-5.11,-5.47,0,*55
1513087600.66,63850,6.25,72656.5,-3.29,-5.35,-5.89,0,*57
1513087601.88,63851,6.19,72632.3,-3.29,-5.51,-6.01,0,*57
1513087603.13,63852,6.19,72650.5,-3.29,-5.93,-6.55,0,*5B
1513087604.38,63853,6.19,72640.8,-3.29,-6.19,-7.11,0,*5A
1513087605.61,63854,6.19,72636.5,-3.29,-6.43,-7.23,0,*53
1513087606.83,63855,6.19,72656.5,-3.29,-6.43,-7.49,0,*5E
1513087608.05,63856,6.19,72660.0,-3.29,-6.85,-8.17,0,*53
1513087609.27,63857,6.25,72664.0,-3.29,-7.19,-9.05,0,*54
1513087610.52,63858,6.25,72664.0,-3.29,-7.61,-9.23,0,*50
1513087611.76,63859,6.25,72654.5,-3.33,-8.71,-10.23,0,*6C
1513087612.99,63860,6.25,72646.8,-3.33,-8.97,-10.23,0,*6E
1513087614.26,63861,6.25,72658.5,-3.35,-9.15,-10.41,0,*66
1513087615.5,63862,6.25,72656.8,-3.33,-9.23,-10.35,0,*65
1513087616.72,63863,6.19,72658.0,-3.35,-9.31,-10.35,0,*61
1513087617.93,63864,6.25,72662.8,-3.35,-9.79,-10.49,0,*61
1513087619.21,63865,6.25,72662.3,-3.33,-9.83,-10.41,0,*6B
1513087620.41,63866,6.19,72660.8,-3.35,-10.09,-10.53,0,*57
1513087621.67,63867,6.19,72664.0,-3.33,-10.79,-11.11,0,*50
1513087622.96,63868,6.25,72670.8,-3.33,-10.75,-10.79,0,*5C
1513087624.2,63869,6.19,72672.5,-3.35,-10.75,-11.23,0,*55
1513087625.43,63870,6.25,72682.3,-3.35,-10.53,-11.07,0,*5F
1513087626.67,63871,6.19,72676.0,-3.33,-10.27,-11.19,0,*54
1513087627.87,63872,6.25,72682.5,-3.35,-9.31,-9.79,0,*51
1513087629.12,63873,6.25,72690.8,-3.33,-8.59,-9.41,0,*52
1513087630.34,63874,6.25,72698.3,-3.33,-8.33,-9.23,0,*5D
1513087631.57,63875,6.25,72700.3,-3.33,-8.75,-9.67,0,*5E
1513087632.82,63876,6.25,72690.8,-3.35,-9.45,-10.79,0,*6E
1513087634.09,63877,6.25,72684.3,-3.35,-10.75,-11.85,0,*56
1513087635.35,63878,6.25,72666.0,-3.33,-11.59,-12.29,0,*55
1513087636.64,63879,6.19,72652.8,-3.33,-11.51,-11.93,0,*5E
1513087637.88,63880,6.25,72668.8,-3.35,-10.41,-10.53,0,*53
1513087639.15,63881,6.25,72676.0,-3.33,-9.57,-9.83,0,*5E
1513087640.38,63882,6.25,72682.3,-3.35,-8.85,-9.45,0,*5F
1513087641.57,63883,6.25,72686.8,-3.35,-8.33,-8.71,0,*55
1513087642.8,63884,6.19,72684.0,-3.35,-7.65,-8.17,0,*5E
1513087644.03,63885,6.25,72684.0,-3.35,-8.37,-9.15,0,*54
1513087645.22,63886,6.25,72684.5,-3.35,-8.33,-8.89,0,*57
1513087646.43,63887,6.25,72680.0,-3.35,-8.63,-9.01,0,*52
1513087647.66,63888,6.19,72680.3,-3.35,-8.75,-9.45,0,*5A
1513087648.89,63889,6.25,72686.0,-3.35,-8.71,-9.11,0,*5E
1513087650.12,63890,6.25,72698.3,-3.35,-8.07,-8.45,0,*57
1513087651.35,63891,6.25,72682.3,-3.35,-7.83,-8.51,0,*50
1513087652.58,63892,6.25,72680.0,-3.35,-8.71,-9.11,0,*54
1513087653.79,63893,6.25,72678.8,-3.35,-8.63,-10.53,0,*68
1513087655.08,63894,6.25,72666.8,-3.37,-11.63,-12.79,0,*5F
1513087656.32,63895,6.25,72672.5,-3.39,-11.23,-12.75,0,*58
1513087657.61,63896,6.25,72672.5,-3.37,-12.75,-13.61,0,*51
1513087658.87,63897,6.25,72656.8,-3.39,-11.77,-12.79,0,*57
1513087660.07,63898,6.19,72642.5,-3.39,-13.23,-14.11,0,*53
1513087661.33,63899,6.25,72650.3,-3.37,-12.83,-13.51,0,*54
1513087662.58,63900,6.19,72642.3,-3.43,-13.11,-13.87,0,*57
1513087663.85,63901,6.19,72648.3,-3.43,-11.85,-12.15,0,*53
1513087665.12,63902,6.25,72658.3,-3.45,-12.15,-12.71,0,*5E
1513087666.37,63903,6.25,72672.8,-3.43,-11.11,-11.59,0,*57
1513087667.63,63904,6.25,72664.8,-3.43,-10.49,-11.93,0,*5A
1513087668.85,63905,6.25,72658.8,-3.45,-13.07,-14.05,0,*5E
1513087670.06,63906,6.25,72682.3,-3.45,-12.03,-12.89,0,*5A
1513087671.29,63907,6.19,72674.3,-3.45,-13.61,-14.61,0,*5E
1513087672.55,63908,6.25,72678.0,-3.43,-14.37,-14.83,0,*5F
1513087673.78,63909,6.25,72672.5,-3.45,-14.33,-14.47,0,*54
1513087674.99,63910,6.25,72672.5,-3.45,-13.69,-13.55,0,*50
1513087676.24,63911,6.25,72652.8,-3.43,-13.87,-14.37,0,*54
1513087677.51,63912,6.25,72660.5,-3.45,-13.97,-14.47,0,*57
1513087678.76,63913,6.25,72656.5,-3.43,-14.43,-14.69,0,*52
1513087680.05,63914,6.25,72672.8,-3.43,-14.51,-14.43,0,*5E
1513087681.28,63915,6.19,72664.0,-3.45,-14.33,-14.01,0,*5B
1513087682.54,63916,6.25,72630.8,-3.43,-11.59,-10.45,0,*53
1513087683.79,63917,6.25,72652.3,-3.43,-11.15,-11.73,0,*5E
1513087685.02,63918,6.25,72636.8,-3.43,-13.23,-14.11,0,*57
1513087686.28,63919,6.25,72608.8,-3.43,-13.83,-14.29,0,*57
1513087687.54,63920,6.19,72618.3,-3.43,-13.79,-14.15,0,*57
1513087688.77,63921,6.19,72636.0,-3.39,-13.83,-14.37,0,*5E
1513087690.0,63922,6.25,72670.3,-3.39,-13.37,-13.73,0,*55
1513087691.23,63923,6.25,72672.8,-3.39,-13.47,-13.83,0,*5C
1513087692.46,63924,6.25,72676.3,-3.39,-12.35,-13.11,0,*54
1513087693.69,63925,6.19,72662.8,-3.39,-13.07,-14.05,0,*57
1513087694.94,63926,6.25,72662.5,-3.43,-12.53,-13.15,0,*5F
1513087696.17,63927,6.25,72686.3,-3.45,-12.47,-13.33,0,*59
1513087697.43,63928,6.25,72668.5,-3.43,-14.01,-14.69,0,*5C
1513087698.68,63929,6.19,72664.0,-3.43,-13.43,-13.87,0,*5B
1513087699.92,63930,6.19,72694.5,-3.45,-13.01,-12.89,0,*5C
1513087701.18,63931,6.25,72648.0,-3.43,-12.53,-11.45,0,*5E
1513087702.41,63932,6.25,72658.8,-3.43,-11.01,-10.89,0,*58
1513087703.64,63933,6.25,72672.8,-3.43,-11.01,-10.85,0,*55
1513087704.92,63934,6.25,72678.5,-3.43,-11.55,-11.55,0,*5F
1513087706.13,63935,6.25,72688.3,-3.39,-11.23,-11.41,0,*57
1513087707.39,63936,6.25,72674.0,-3.39,-11.97,-12.83,0,*56
1513087708.65,63937,6.25,72676.8,-3.39,-12.61,-12.79,0,*58
1513087709.88,63938,6.19,72692.8,-3.39,-12.25,-12.65,0,*5A
1513087711.13,63939,6.25,72706.5,-3.39,-11.77,-12.11,0,*5C
1513087712.34,63940,6.25,72692.3,-3.39,-13.11,-13.51,0,*55
1513087713.57,63941,6.25,72656.3,-3.37,-13.23,-13.47,0,*5C
1513087714.86,63942,6.25,72598.0,-3.37,-13.61,-13.33,0,*5A
1513087716.14,63943,6.25,72560.5,-3.37,-13.61,-13.37,0,*5F